THY1YB OEJN-LTFM

Flight info

Callsign THY1YB
Flight time 2h 57m
Altitude 40000
Route MIGDA L677 GESON DCT LAGVI Q777 RASDA M855 TOMBI UM855 SISPI
Aircraft B77W/H-SDE2E3GHIJ3J4J5LM1ORWXY/LB1D1

Departure

Time 2026-05-06 12:16
Airport King Abdulaziz International Airport (OEJN)

Arrival

Time 2026-05-06 15:14
Airport İstanbul Airport (LTFM)
Time Latitude Longitude Altitude Speed Heading
2026-05-06 12:08 21.67239 39.16934 36 ft 0 kts 247°
2026-05-06 12:10 21.67237 39.16928 37 ft 3 kts 247°
2026-05-06 12:10 21.67220 39.16879 37 ft 11 kts 254°
2026-05-06 12:10 21.67232 39.16794 37 ft 12 kts 318°
2026-05-06 12:10 21.67310 39.16779 36 ft 12 kts 360°
2026-05-06 12:11 21.67388 39.16760 36 ft 12 kts 341°
2026-05-06 12:11 21.67479 39.16723 36 ft 17 kts 339°
2026-05-06 12:11 21.67595 39.16677 36 ft 19 kts 340°
2026-05-06 12:11 21.67650 39.16619 36 ft 7 kts 271°
2026-05-06 12:12 21.67627 39.16541 36 ft 13 kts 249°
2026-05-06 12:12 21.67592 39.16438 36 ft 16 kts 250°
2026-05-06 12:12 21.67549 39.16312 36 ft 20 kts 249°
2026-05-06 12:12 21.67497 39.16178 37 ft 11 kts 229°
2026-05-06 12:13 21.67443 39.16167 37 ft 12 kts 170°
2026-05-06 12:13 21.67324 39.16211 37 ft 21 kts 161°
2026-05-06 12:13 21.67179 39.16269 38 ft 23 kts 160°
2026-05-06 12:13 21.67015 39.16332 38 ft 27 kts 161°
2026-05-06 12:14 21.66832 39.16403 38 ft 29 kts 160°
2026-05-06 12:14 21.66633 39.16482 38 ft 32 kts 160°
2026-05-06 12:14 21.66412 39.16568 37 ft 35 kts 160°
2026-05-06 12:14 21.66253 39.16631 37 ft 19 kts 165°
2026-05-06 12:15 21.66159 39.16560 37 ft 19 kts 250°
2026-05-06 12:15 21.66172 39.16481 36 ft 10 kts 312°
2026-05-06 12:15 21.66389 39.16385 40 ft 69 kts 340°
2026-05-06 12:15 21.67085 39.16111 43 ft 142 kts 339°
2026-05-06 12:16 21.68145 39.15681 469 ft 169 kts 339°
2026-05-06 12:16 21.69228 39.15250 1440 ft 165 kts 340°
2026-05-06 12:16 21.70370 39.14805 1960 ft 186 kts 340°
2026-05-06 12:16 21.71623 39.14307 2476 ft 201 kts 339°
2026-05-06 12:17 21.73027 39.13674 2895 ft 232 kts 338°
2026-05-06 12:17 21.74575 39.12984 3401 ft 254 kts 338°
2026-05-06 12:17 21.76250 39.12231 4217 ft 267 kts 337°
2026-05-06 12:17 21.77990 39.11436 5058 ft 275 kts 337°
2026-05-06 12:18 21.79768 39.10619 5967 ft 280 kts 337°
2026-05-06 12:18 21.81575 39.09787 6786 ft 285 kts 336°
2026-05-06 12:18 21.83423 39.08936 7590 ft 293 kts 335°
2026-05-06 12:18 21.85315 39.08064 8420 ft 299 kts 334°
2026-05-06 12:19 21.87258 39.07166 9297 ft 306 kts 334°
2026-05-06 12:19 21.89205 39.06267 10158 ft 312 kts 334°
2026-05-06 12:19 21.91260 39.05315 10708 ft 332 kts 334°
2026-05-06 12:19 21.93443 39.04307 11269 ft 348 kts 333°
2026-05-06 12:20 21.95712 39.03259 11972 ft 358 kts 334°
2026-05-06 12:20 21.98014 39.02198 12866 ft 362 kts 333°
2026-05-06 12:20 22.00347 39.01121 13761 ft 366 kts 333°
2026-05-06 12:20 22.02700 39.00034 14604 ft 369 kts 333°
2026-05-06 12:21 22.05080 38.98934 15390 ft 375 kts 333°
2026-05-06 12:21 22.07491 38.97818 16178 ft 379 kts 333°
2026-05-06 12:21 22.09936 38.96686 16978 ft 385 kts 333°
2026-05-06 12:21 22.12414 38.95539 17796 ft 390 kts 333°
2026-05-06 12:22 22.14920 38.94378 18550 ft 395 kts 333°
2026-05-06 12:22 22.17459 38.93202 19330 ft 397 kts 333°
2026-05-06 12:22 22.19973 38.92038 20103 ft 400 kts 333°
2026-05-06 12:22 22.22545 38.90845 20876 ft 403 kts 332°
2026-05-06 12:23 22.25139 38.89642 21662 ft 407 kts 332°
2026-05-06 12:23 22.27750 38.88430 22443 ft 411 kts 332°
2026-05-06 12:23 22.30388 38.87205 23228 ft 414 kts 332°
2026-05-06 12:23 22.33049 38.85969 23898 ft 418 kts 332°
2026-05-06 12:24 22.35733 38.84721 24556 ft 421 kts 331°
2026-05-06 12:24 22.38437 38.83465 25212 ft 424 kts 331°
2026-05-06 12:24 22.41161 38.82198 25877 ft 427 kts 330°
2026-05-06 12:24 22.43903 38.80922 26520 ft 431 kts 330°
2026-05-06 12:25 22.46633 38.79651 27149 ft 434 kts 330°
2026-05-06 12:25 22.49422 38.78352 27787 ft 437 kts 329°
2026-05-06 12:25 22.52232 38.77043 28382 ft 441 kts 329°
2026-05-06 12:25 22.55061 38.75724 29011 ft 444 kts 329°
2026-05-06 12:26 22.57915 38.74393 29622 ft 447 kts 329°
2026-05-06 12:26 22.60785 38.73054 30174 ft 451 kts 328°
2026-05-06 12:26 22.63679 38.71703 30600 ft 455 kts 328°
2026-05-06 12:26 22.66608 38.70350 31013 ft 461 kts 329°
2026-05-06 12:27 22.69591 38.69016 31430 ft 466 kts 329°
2026-05-06 12:27 22.72615 38.67685 31858 ft 470 kts 329°
2026-05-06 12:27 22.75667 38.66347 32279 ft 475 kts 329°
2026-05-06 12:27 22.78699 38.65016 32705 ft 478 kts 329°
2026-05-06 12:28 22.81794 38.63653 33126 ft 482 kts 328°
2026-05-06 12:28 22.84913 38.62273 33527 ft 485 kts 328°
2026-05-06 12:28 22.88049 38.60881 33923 ft 489 kts 328°
2026-05-06 12:28 22.91202 38.59481 34356 ft 489 kts 328°
2026-05-06 12:29 22.94353 38.58085 34903 ft 486 kts 328°
2026-05-06 12:29 22.97475 38.56702 35441 ft 484 kts 328°
2026-05-06 12:29 23.00585 38.55320 35905 ft 483 kts 328°
2026-05-06 12:29 23.03693 38.53937 36374 ft 482 kts 328°
2026-05-06 12:30 23.06793 38.52554 36832 ft 481 kts 328°
2026-05-06 12:30 23.09890 38.51172 37275 ft 480 kts 328°
2026-05-06 12:30 23.12973 38.49795 37725 ft 479 kts 328°
2026-05-06 12:30 23.16055 38.48419 38165 ft 478 kts 328°
2026-05-06 12:31 23.19122 38.47049 38615 ft 476 kts 327°
2026-05-06 12:31 23.21152 38.46142 38841 ft 475 kts 327°
2026-05-06 12:31 23.24214 38.44773 39176 ft 475 kts 328°
2026-05-06 12:31 23.27266 38.43407 39491 ft 474 kts 328°
2026-05-06 12:32 23.30319 38.42040 39781 ft 474 kts 328°
2026-05-06 12:32 23.33374 38.40670 39880 ft 476 kts 328°
2026-05-06 12:32 23.39505 38.37921 39881 ft 477 kts 328°
2026-05-06 12:33 23.45649 38.35165 39881 ft 477 kts 328°
2026-05-06 12:33 23.51792 38.32409 39878 ft 478 kts 328°
2026-05-06 12:34 23.57903 38.29663 39878 ft 478 kts 328°
2026-05-06 12:34 23.64051 38.26898 39870 ft 478 kts 328°
2026-05-06 12:35 23.70204 38.24133 39870 ft 477 kts 328°
2026-05-06 12:35 23.76350 38.21359 39880 ft 477 kts 328°
2026-05-06 12:36 23.82492 38.18583 39874 ft 478 kts 328°
2026-05-06 12:36 23.88597 38.15824 39848 ft 478 kts 328°
2026-05-06 12:37 23.94743 38.13045 39805 ft 478 kts 328°
2026-05-06 12:37 24.00887 38.10264 39782 ft 478 kts 328°
2026-05-06 12:38 24.07028 38.07480 39779 ft 478 kts 327°
2026-05-06 12:38 24.13162 38.04669 39772 ft 475 kts 325°
2026-05-06 12:39 24.18748 38.01051 39775 ft 463 kts 316°
2026-05-06 12:39 24.24078 37.97114 39772 ft 461 kts 315°
2026-05-06 12:40 24.29322 37.93150 39780 ft 460 kts 315°
2026-05-06 12:40 24.34596 37.89166 39823 ft 460 kts 315°
2026-05-06 12:41 24.39875 37.85190 39789 ft 461 kts 315°
2026-05-06 12:41 24.45172 37.81205 39796 ft 461 kts 315°
2026-05-06 12:42 24.50471 37.77216 39807 ft 461 kts 315°
2026-05-06 12:42 24.55756 37.73232 39806 ft 461 kts 315°
2026-05-06 12:43 24.61007 37.69269 39836 ft 461 kts 316°
2026-05-06 12:43 24.66286 37.65281 39836 ft 460 kts 316°
2026-05-06 12:44 24.71564 37.61290 39851 ft 460 kts 315°
2026-05-06 12:44 24.76845 37.57292 39866 ft 460 kts 315°
2026-05-06 12:45 24.82115 37.53298 39865 ft 459 kts 315°
2026-05-06 12:46 24.89980 37.47328 39892 ft 459 kts 316°
2026-05-06 12:46 24.95247 37.43325 39878 ft 459 kts 316°
2026-05-06 12:47 25.00506 37.39325 39898 ft 459 kts 316°
2026-05-06 12:47 25.05765 37.35322 39889 ft 458 kts 316°
2026-05-06 12:48 25.11011 37.31322 39887 ft 458 kts 316°
2026-05-06 12:48 25.16254 37.27321 39898 ft 458 kts 316°
2026-05-06 12:49 25.21500 37.23312 39914 ft 458 kts 316°
2026-05-06 12:49 25.26705 37.19332 39900 ft 458 kts 316°
2026-05-06 12:50 25.31943 37.15324 39894 ft 457 kts 316°
2026-05-06 12:50 25.37182 37.11307 39893 ft 458 kts 316°
2026-05-06 12:51 25.42418 37.07292 39889 ft 458 kts 316°
2026-05-06 12:51 25.47648 37.03274 39888 ft 457 kts 316°
2026-05-06 12:52 25.52873 36.99251 39886 ft 457 kts 316°
2026-05-06 12:52 25.58100 36.95225 39885 ft 457 kts 316°
2026-05-06 12:53 25.63291 36.91223 39908 ft 457 kts 316°
2026-05-06 12:53 25.68509 36.87197 39890 ft 457 kts 316°
2026-05-06 12:54 25.73729 36.83168 39894 ft 457 kts 316°
2026-05-06 12:54 25.78954 36.79129 39900 ft 457 kts 316°
2026-05-06 12:55 25.84176 36.75084 39913 ft 457 kts 316°
2026-05-06 12:55 25.89350 36.71072 39915 ft 457 kts 316°
2026-05-06 12:56 25.94559 36.67030 39914 ft 457 kts 316°
2026-05-06 12:56 25.99770 36.62983 39917 ft 456 kts 317°
2026-05-06 12:57 26.04980 36.58931 39916 ft 456 kts 317°
2026-05-06 12:57 26.10179 36.54884 39912 ft 456 kts 317°
2026-05-06 12:58 26.15379 36.50832 39911 ft 456 kts 317°
2026-05-06 12:58 26.20116 36.46299 39912 ft 445 kts 308°
2026-05-06 12:59 26.24437 36.41432 39912 ft 443 kts 306°
2026-05-06 12:59 26.28704 36.36488 39941 ft 443 kts 306°
2026-05-06 13:00 26.32973 36.31535 39916 ft 442 kts 306°
2026-05-06 13:00 26.37243 36.26595 39921 ft 442 kts 306°
2026-05-06 13:01 26.41513 36.21660 39929 ft 441 kts 307°
2026-05-06 13:01 26.45771 36.16737 39928 ft 441 kts 307°
2026-05-06 13:02 26.50002 36.11836 39927 ft 440 kts 307°
2026-05-06 13:02 26.54264 36.06892 39927 ft 440 kts 307°
2026-05-06 13:03 26.58509 36.01964 39930 ft 440 kts 307°
2026-05-06 13:03 26.62755 35.97028 39931 ft 440 kts 306°
2026-05-06 13:04 26.67001 35.92088 39934 ft 440 kts 307°
2026-05-06 13:04 26.71212 35.87181 39933 ft 440 kts 306°
2026-05-06 13:05 26.75456 35.82232 39932 ft 440 kts 306°
2026-05-06 13:05 26.79693 35.77287 39935 ft 440 kts 307°
2026-05-06 13:06 26.83929 35.72341 39936 ft 440 kts 306°
2026-05-06 13:06 26.88157 35.67391 39935 ft 439 kts 306°
2026-05-06 13:07 26.92389 35.62430 39931 ft 439 kts 306°
2026-05-06 13:07 26.96579 35.57514 39931 ft 439 kts 306°
2026-05-06 13:08 27.00803 35.52555 39930 ft 439 kts 306°
2026-05-06 13:08 27.05020 35.47597 39945 ft 439 kts 307°
2026-05-06 13:09 27.09231 35.42641 39931 ft 438 kts 307°
2026-05-06 13:09 27.13439 35.37683 39930 ft 438 kts 307°
2026-05-06 13:10 27.17648 35.32718 39933 ft 438 kts 307°
2026-05-06 13:10 27.21849 35.27757 39933 ft 438 kts 306°
2026-05-06 13:11 27.26050 35.22788 39933 ft 438 kts 307°
2026-05-06 13:11 27.30227 35.17844 39930 ft 438 kts 307°
2026-05-06 13:12 27.34414 35.12882 39927 ft 437 kts 307°
2026-05-06 13:12 27.38603 35.07911 39927 ft 437 kts 307°
2026-05-06 13:13 27.42795 35.02930 39929 ft 438 kts 307°
2026-05-06 13:13 27.46979 34.97953 39933 ft 438 kts 307°
2026-05-06 13:14 27.51173 34.92954 40046 ft 445 kts 307°
2026-05-06 13:14 27.53337 34.90453 40282 ft 448 kts 309°
2026-05-06 13:14 27.55609 34.88021 40546 ft 450 kts 310°
2026-05-06 13:14 27.57919 34.85634 40810 ft 450 kts 311°
2026-05-06 13:15 27.60238 34.83256 41073 ft 451 kts 311°
2026-05-06 13:15 27.62555 34.80868 41330 ft 451 kts 311°
2026-05-06 13:15 27.64857 34.78473 41595 ft 450 kts 310°
2026-05-06 13:15 27.67155 34.76061 41831 ft 450 kts 310°
2026-05-06 13:16 27.68670 34.74463 41936 ft 451 kts 310°
2026-05-06 13:16 27.73243 34.69617 41970 ft 450 kts 310°
2026-05-06 13:17 27.78545 34.63984 41957 ft 450 kts 310°
2026-05-06 13:17 27.82343 34.59946 41965 ft 450 kts 310°
2026-05-06 13:18 27.86930 34.55065 41973 ft 450 kts 310°
2026-05-06 13:18 27.91464 34.50237 41968 ft 450 kts 310°
2026-05-06 13:19 27.96021 34.45379 41971 ft 450 kts 310°
2026-05-06 13:19 28.00429 34.40389 41965 ft 445 kts 304°
2026-05-06 13:20 28.04421 34.35030 41961 ft 443 kts 303°
2026-05-06 13:20 28.08311 34.29646 41968 ft 443 kts 303°
2026-05-06 13:21 28.12207 34.24223 41977 ft 443 kts 303°
2026-05-06 13:21 28.16106 34.18809 42004 ft 442 kts 303°
2026-05-06 13:22 28.19991 34.13413 42004 ft 441 kts 303°
2026-05-06 13:22 28.23868 34.08021 42010 ft 441 kts 303°
2026-05-06 13:23 28.27742 34.02624 42008 ft 441 kts 303°
2026-05-06 13:23 28.31623 33.97211 42008 ft 441 kts 303°
2026-05-06 13:24 28.35496 33.91805 42004 ft 441 kts 304°
2026-05-06 13:24 28.39343 33.86435 42008 ft 441 kts 304°
2026-05-06 13:25 28.43214 33.81022 42005 ft 441 kts 303°
2026-05-06 13:25 28.47079 33.75605 41995 ft 441 kts 303°
2026-05-06 13:26 28.50952 33.70170 41990 ft 442 kts 304°
2026-05-06 13:26 28.54797 33.64774 42006 ft 441 kts 304°
2026-05-06 13:27 28.58658 33.59364 41998 ft 440 kts 304°
2026-05-06 13:27 28.62508 33.53959 41995 ft 438 kts 304°
2026-05-06 13:28 28.66350 33.48564 41995 ft 438 kts 303°
2026-05-06 13:28 28.70179 33.43152 41992 ft 438 kts 303°
2026-05-06 13:29 28.73980 33.37770 41992 ft 438 kts 303°
2026-05-06 13:29 28.77808 33.32352 41993 ft 438 kts 303°
2026-05-06 13:30 28.81632 33.26936 41993 ft 439 kts 303°
2026-05-06 13:30 28.85460 33.21507 41993 ft 439 kts 303°
2026-05-06 13:31 28.89281 33.16080 41997 ft 438 kts 303°
2026-05-06 13:31 28.93093 33.10660 41992 ft 437 kts 303°
2026-05-06 13:32 28.96903 33.05235 41993 ft 436 kts 303°
2026-05-06 13:32 29.00669 32.99863 41997 ft 436 kts 303°
2026-05-06 13:33 29.04465 32.94444 42002 ft 436 kts 303°
2026-05-06 13:33 29.08265 32.89011 42005 ft 436 kts 303°
2026-05-06 13:34 29.12055 32.83587 42009 ft 436 kts 303°
2026-05-06 13:34 29.15831 32.78175 42016 ft 435 kts 303°
2026-05-06 13:35 29.19585 32.72787 42015 ft 435 kts 303°
2026-05-06 13:35 29.23364 32.67357 42031 ft 435 kts 303°
2026-05-06 13:36 29.27135 32.61930 42034 ft 435 kts 303°
2026-05-06 13:36 29.30898 32.56496 42038 ft 435 kts 303°
2026-05-06 13:37 29.34616 32.51076 42055 ft 435 kts 303°
2026-05-06 13:37 29.38349 32.45622 42041 ft 434 kts 303°
2026-05-06 13:38 29.42078 32.40174 42050 ft 434 kts 303°
2026-05-06 13:38 29.45816 32.34711 42063 ft 434 kts 303°
2026-05-06 13:39 29.49547 32.29251 42052 ft 434 kts 303°
2026-05-06 13:39 29.53277 32.23784 42052 ft 434 kts 303°
2026-05-06 13:40 29.56979 32.18350 42056 ft 434 kts 303°
2026-05-06 13:40 29.60702 32.12881 42074 ft 434 kts 303°
2026-05-06 13:41 29.64421 32.07409 42075 ft 434 kts 303°
2026-05-06 13:41 29.68132 32.01941 42071 ft 434 kts 303°
2026-05-06 13:42 29.71821 31.96497 42068 ft 433 kts 303°
2026-05-06 13:42 29.75533 31.91014 42094 ft 434 kts 303°
2026-05-06 13:43 29.79234 31.85538 42073 ft 433 kts 303°
2026-05-06 13:43 29.82837 31.79981 42075 ft 432 kts 302°
2026-05-06 13:44 29.86387 31.74382 42074 ft 432 kts 302°
2026-05-06 13:44 29.90572 31.69385 42071 ft 442 kts 316°
2026-05-06 13:45 29.96018 31.65905 42072 ft 457 kts 334°
2026-05-06 13:45 30.05532 31.63675 42071 ft 469 kts 345°
2026-05-06 13:46 30.11997 31.62590 42049 ft 469 kts 345°
2026-05-06 13:46 30.18445 31.61486 42045 ft 468 kts 345°
2026-05-06 13:47 30.24883 31.60343 42049 ft 468 kts 344°
2026-05-06 13:47 30.31319 31.59183 42046 ft 468 kts 344°
2026-05-06 13:48 30.37750 31.58021 42037 ft 467 kts 344°
2026-05-06 13:48 30.44177 31.56861 42036 ft 467 kts 344°
2026-05-06 13:49 30.50556 31.55707 42038 ft 467 kts 344°
2026-05-06 13:49 30.56977 31.54545 42039 ft 467 kts 344°
2026-05-06 13:50 30.63389 31.53383 42039 ft 466 kts 344°
2026-05-06 13:50 30.69785 31.52223 42043 ft 465 kts 344°
2026-05-06 13:51 30.76186 31.51060 42042 ft 465 kts 344°
2026-05-06 13:51 30.82575 31.49897 42049 ft 464 kts 344°
2026-05-06 13:52 30.88964 31.48728 42052 ft 464 kts 344°
2026-05-06 13:52 30.95337 31.47563 42053 ft 463 kts 344°
2026-05-06 13:53 31.01668 31.46403 42059 ft 463 kts 344°
2026-05-06 13:53 31.08043 31.45233 42059 ft 463 kts 344°
2026-05-06 13:54 31.14408 31.44065 42067 ft 463 kts 344°
2026-05-06 13:54 31.20767 31.42896 42072 ft 462 kts 344°
2026-05-06 13:55 31.27122 31.41728 42072 ft 462 kts 345°
2026-05-06 13:55 31.33494 31.40551 42109 ft 462 kts 344°
2026-05-06 13:56 31.39808 31.39376 42081 ft 461 kts 344°
2026-05-06 13:56 31.46140 31.38199 42084 ft 461 kts 344°
2026-05-06 13:57 31.54189 31.36701 42088 ft 461 kts 344°
2026-05-06 13:57 31.67014 31.35134 42086 ft 465 kts 349°
2026-05-06 13:58 31.79917 31.33934 42088 ft 464 kts 348°
2026-05-06 13:58 31.92800 31.32582 42086 ft 464 kts 348°
2026-05-06 13:59 32.05677 31.31215 42086 ft 464 kts 348°
2026-05-06 13:59 32.18520 31.29850 42086 ft 463 kts 348°
2026-05-06 14:00 32.29189 31.28694 42088 ft 463 kts 348°
2026-05-06 14:00 32.42021 31.27311 42086 ft 462 kts 348°
2026-05-06 14:01 32.54814 31.25872 42083 ft 459 kts 345°
2026-05-06 14:01 32.60830 31.23766 42090 ft 446 kts 331°
2026-05-06 14:01 32.68248 31.19621 42085 ft 444 kts 328°
2026-05-06 14:02 32.77512 31.14132 42080 ft 444 kts 328°
2026-05-06 14:02 32.88507 31.07671 42080 ft 443 kts 328°
2026-05-06 14:03 32.99580 31.01166 42080 ft 442 kts 328°
2026-05-06 14:03 33.10940 30.95411 42099 ft 453 kts 343°
2026-05-06 14:04 33.23691 30.94411 42082 ft 462 kts 352°
2026-05-06 14:04 33.36548 30.94017 42078 ft 462 kts 352°
2026-05-06 14:05 33.49415 30.93536 42075 ft 462 kts 352°
2026-05-06 14:05 33.62266 30.93047 42076 ft 462 kts 352°
2026-05-06 14:06 33.75081 30.92562 42075 ft 463 kts 352°
2026-05-06 14:06 33.87958 30.92072 42076 ft 462 kts 352°
2026-05-06 14:07 34.00816 30.91537 42073 ft 461 kts 351°
2026-05-06 14:07 34.13612 30.90784 42072 ft 460 kts 352°
2026-05-06 14:08 34.26394 30.90070 42069 ft 460 kts 352°
2026-05-06 14:08 34.39100 30.89454 42069 ft 460 kts 352°
2026-05-06 14:09 34.51898 30.88830 42069 ft 460 kts 352°
2026-05-06 14:09 34.64705 30.88209 42067 ft 460 kts 352°
2026-05-06 14:10 34.77525 30.87813 42066 ft 459 kts 353°
2026-05-06 14:10 34.90292 30.87405 42061 ft 459 kts 353°
2026-05-06 14:11 35.02978 30.86982 42058 ft 459 kts 353°
2026-05-06 14:11 35.10338 30.86737 42062 ft 459 kts 353°
2026-05-06 14:12 35.16726 30.86523 42056 ft 458 kts 353°
2026-05-06 14:12 35.23106 30.86312 42058 ft 458 kts 353°
2026-05-06 14:13 35.29482 30.86098 42055 ft 458 kts 353°
2026-05-06 14:13 35.35864 30.85884 42053 ft 458 kts 353°
2026-05-06 14:14 35.42196 30.85671 42056 ft 457 kts 353°
2026-05-06 14:14 35.48564 30.85457 42056 ft 457 kts 353°
2026-05-06 14:15 35.54926 30.85243 42056 ft 457 kts 353°
2026-05-06 14:15 35.61289 30.85028 42059 ft 457 kts 353°
2026-05-06 14:16 35.67646 30.84735 42056 ft 456 kts 352°
2026-05-06 14:16 35.73945 30.84319 42053 ft 456 kts 352°
2026-05-06 14:17 35.80280 30.83905 42073 ft 456 kts 352°
2026-05-06 14:17 35.86625 30.83512 42055 ft 456 kts 352°
2026-05-06 14:18 35.92973 30.83128 42055 ft 456 kts 352°
2026-05-06 14:18 35.99309 30.82747 42049 ft 456 kts 352°
2026-05-06 14:19 36.05671 30.82366 42053 ft 456 kts 353°
2026-05-06 14:19 36.11987 30.82130 42051 ft 457 kts 354°
2026-05-06 14:20 36.18355 30.81959 42049 ft 457 kts 354°
2026-05-06 14:20 36.24716 30.81770 42068 ft 457 kts 354°
2026-05-06 14:21 36.31088 30.81562 42047 ft 459 kts 354°
2026-05-06 14:21 36.37474 30.81348 42047 ft 459 kts 354°
2026-05-06 14:22 36.43863 30.81137 42046 ft 459 kts 354°
2026-05-06 14:22 36.47019 30.81032 42147 ft 459 kts 354°
2026-05-06 14:22 36.50222 30.80920 42359 ft 460 kts 354°
2026-05-06 14:23 36.53432 30.80806 42610 ft 461 kts 354°
2026-05-06 14:23 36.56646 30.80693 42829 ft 461 kts 354°
2026-05-06 14:23 36.59857 30.80580 43015 ft 463 kts 354°
2026-05-06 14:23 36.63083 30.80467 43050 ft 463 kts 354°
2026-05-06 14:24 36.69522 30.80245 43048 ft 462 kts 354°
2026-05-06 14:24 36.75939 30.80025 43047 ft 461 kts 354°
2026-05-06 14:25 36.82347 30.79803 43047 ft 460 kts 354°
2026-05-06 14:25 36.88752 30.79580 43063 ft 461 kts 354°
2026-05-06 14:26 36.95114 30.79296 43045 ft 458 kts 351°
2026-05-06 14:26 37.01443 30.78499 43047 ft 456 kts 349°
2026-05-06 14:27 37.07757 30.77580 43047 ft 457 kts 349°
2026-05-06 14:27 37.14079 30.76731 43059 ft 456 kts 350°
2026-05-06 14:28 37.20394 30.75935 43059 ft 456 kts 350°
2026-05-06 14:28 37.26703 30.75152 43052 ft 456 kts 350°
2026-05-06 14:29 37.33022 30.74365 43060 ft 456 kts 350°
2026-05-06 14:29 37.39335 30.73570 43069 ft 456 kts 350°
2026-05-06 14:30 37.45606 30.72760 43079 ft 455 kts 349°
2026-05-06 14:30 37.51890 30.71832 43074 ft 455 kts 349°
2026-05-06 14:31 37.58181 30.70886 43079 ft 456 kts 349°
2026-05-06 14:31 37.64500 30.70034 43083 ft 457 kts 350°
2026-05-06 14:32 37.70836 30.69277 43092 ft 457 kts 351°
2026-05-06 14:32 37.77180 30.68514 43094 ft 457 kts 351°
2026-05-06 14:33 37.83466 30.67742 43095 ft 456 kts 350°
2026-05-06 14:33 37.89799 30.66955 43097 ft 456 kts 351°
2026-05-06 14:34 37.96114 30.66079 43108 ft 456 kts 349°
2026-05-06 14:34 38.02382 30.65158 43086 ft 456 kts 350°
2026-05-06 14:35 38.08697 30.64322 43100 ft 456 kts 350°
2026-05-06 14:35 38.15017 30.63505 43096 ft 456 kts 350°
2026-05-06 14:36 38.21346 30.62678 43092 ft 457 kts 351°
2026-05-06 14:36 38.27689 30.61904 43091 ft 459 kts 354°
2026-05-06 14:37 38.34057 30.61709 43089 ft 460 kts 355°
2026-05-06 14:37 38.40472 30.61630 43095 ft 461 kts 356°
2026-05-06 14:38 38.46890 30.61573 43083 ft 461 kts 356°
2026-05-06 14:38 38.53318 30.61509 43091 ft 461 kts 356°
2026-05-06 14:39 38.59737 30.61438 43080 ft 461 kts 356°
2026-05-06 14:39 38.66155 30.61365 43078 ft 461 kts 356°
2026-05-06 14:40 38.72426 30.60394 43077 ft 454 kts 341°
2026-05-06 14:40 38.78236 30.57357 43091 ft 450 kts 332°
2026-05-06 14:41 38.83875 30.53888 43075 ft 448 kts 332°
2026-05-06 14:41 38.89512 30.50462 43059 ft 447 kts 332°
2026-05-06 14:42 38.95097 30.47048 43076 ft 447 kts 332°
2026-05-06 14:42 39.00723 30.43596 43075 ft 447 kts 332°
2026-05-06 14:43 39.06352 30.40135 43061 ft 448 kts 332°
2026-05-06 14:43 39.11953 30.36684 43069 ft 449 kts 332°
2026-05-06 14:44 39.17133 30.33487 43062 ft 449 kts 332°
2026-05-06 14:45 39.25572 30.28268 43050 ft 448 kts 332°
2026-05-06 14:45 39.28367 30.26537 42903 ft 444 kts 332°
2026-05-06 14:45 39.30865 30.24988 42666 ft 440 kts 332°
2026-05-06 14:45 39.32375 30.24051 42529 ft 439 kts 332°
2026-05-06 14:46 39.35125 30.22343 42051 ft 438 kts 332°
2026-05-06 14:46 39.37882 30.20629 41305 ft 440 kts 332°
2026-05-06 14:46 39.40652 30.18905 40500 ft 444 kts 332°
2026-05-06 14:46 39.43443 30.17167 39744 ft 447 kts 333°
2026-05-06 14:47 39.46251 30.15417 39062 ft 448 kts 333°
2026-05-06 14:47 39.49059 30.13666 38308 ft 448 kts 333°
2026-05-06 14:47 39.51870 30.11912 37474 ft 448 kts 333°
2026-05-06 14:47 39.54676 30.10159 36650 ft 448 kts 333°
2026-05-06 14:48 39.56535 30.08996 36155 ft 447 kts 333°
2026-05-06 14:48 39.60241 30.06678 35175 ft 444 kts 333°
2026-05-06 14:48 39.63024 30.04935 34438 ft 443 kts 334°
2026-05-06 14:48 39.65793 30.03198 33636 ft 441 kts 334°
2026-05-06 14:49 39.68555 30.01465 32665 ft 442 kts 334°
2026-05-06 14:49 39.70426 30.00290 32015 ft 442 kts 333°
2026-05-06 14:49 39.73151 29.98578 31372 ft 437 kts 333°
2026-05-06 14:49 39.75873 29.96865 30809 ft 431 kts 334°
2026-05-06 14:50 39.78559 29.95174 30225 ft 426 kts 334°
2026-05-06 14:50 39.81215 29.93500 29569 ft 421 kts 334°
2026-05-06 14:50 39.83833 29.91849 28987 ft 414 kts 333°
2026-05-06 14:50 39.86398 29.90230 28667 ft 403 kts 333°
2026-05-06 14:51 39.88888 29.88669 28300 ft 393 kts 334°
2026-05-06 14:51 39.91416 29.87483 27744 ft 390 kts 345°
2026-05-06 14:51 39.94095 29.87029 27383 ft 390 kts 356°
2026-05-06 14:51 39.96821 29.86971 27028 ft 392 kts 358°
2026-05-06 14:52 39.99559 29.86973 26676 ft 393 kts 358°
2026-05-06 14:52 40.02288 29.86979 26311 ft 391 kts 358°
2026-05-06 14:52 40.05006 29.86968 26036 ft 388 kts 357°
2026-05-06 14:52 40.07663 29.86648 25471 ft 383 kts 348°
2026-05-06 14:53 40.10244 29.85716 24641 ft 386 kts 338°
2026-05-06 14:53 40.12617 29.84071 23975 ft 386 kts 325°
2026-05-06 14:53 40.14761 29.81979 23354 ft 383 kts 322°
2026-05-06 14:53 40.16824 29.79826 22791 ft 377 kts 322°
2026-05-06 14:54 40.18833 29.77716 22133 ft 374 kts 322°
2026-05-06 14:54 40.20857 29.75590 21477 ft 372 kts 322°
2026-05-06 14:54 40.22867 29.73481 20840 ft 369 kts 322°
2026-05-06 14:54 40.24867 29.71382 20188 ft 366 kts 322°
2026-05-06 14:55 40.26849 29.69302 19587 ft 364 kts 322°
2026-05-06 14:55 40.28813 29.67240 19220 ft 362 kts 322°
2026-05-06 14:55 40.30780 29.65175 18822 ft 362 kts 322°
2026-05-06 14:55 40.32742 29.63112 18378 ft 360 kts 322°
2026-05-06 14:56 40.34692 29.61061 17836 ft 358 kts 322°
2026-05-06 14:56 40.36629 29.59022 17306 ft 355 kts 322°
2026-05-06 14:56 40.38547 29.57001 16787 ft 352 kts 322°
2026-05-06 14:56 40.40451 29.54993 16277 ft 349 kts 322°
2026-05-06 14:57 40.42312 29.53029 15775 ft 346 kts 322°
2026-05-06 14:57 40.44176 29.51061 15280 ft 342 kts 322°
2026-05-06 14:57 40.46023 29.49109 14795 ft 339 kts 322°
2026-05-06 14:57 40.47859 29.47168 14323 ft 337 kts 322°
2026-05-06 14:58 40.49681 29.45239 13838 ft 335 kts 322°
2026-05-06 14:58 40.51491 29.43323 13331 ft 333 kts 322°
2026-05-06 14:58 40.53290 29.41416 12788 ft 330 kts 322°
2026-05-06 14:58 40.55068 29.39525 12272 ft 327 kts 322°
2026-05-06 14:59 40.56830 29.37653 11759 ft 325 kts 322°
2026-05-06 14:59 40.58583 29.35793 11295 ft 322 kts 322°
2026-05-06 14:59 40.60318 29.33948 11061 ft 321 kts 322°
2026-05-06 14:59 40.62026 29.32133 10972 ft 315 kts 322°
2026-05-06 15:00 40.63649 29.30406 10990 ft 286 kts 322°
2026-05-06 15:00 40.65163 29.28793 10992 ft 277 kts 322°
2026-05-06 15:00 40.66656 29.27203 10992 ft 277 kts 322°
2026-05-06 15:00 40.68150 29.25612 10952 ft 273 kts 322°
2026-05-06 15:01 40.69613 29.24053 10524 ft 270 kts 322°
2026-05-06 15:01 40.71077 29.22491 9994 ft 272 kts 322°
2026-05-06 15:01 40.72549 29.20919 9474 ft 271 kts 322°
2026-05-06 15:01 40.74010 29.19358 8974 ft 270 kts 322°
2026-05-06 15:02 40.75461 29.17806 8505 ft 267 kts 322°
2026-05-06 15:02 40.76896 29.16272 8054 ft 264 kts 322°
2026-05-06 15:02 40.78322 29.14745 7598 ft 263 kts 322°
2026-05-06 15:02 40.79738 29.13229 7143 ft 261 kts 322°
2026-05-06 15:03 40.81144 29.11722 6695 ft 259 kts 321°
2026-05-06 15:03 40.82523 29.10244 6266 ft 257 kts 321°
2026-05-06 15:03 40.83907 29.08760 5994 ft 257 kts 321°
2026-05-06 15:03 40.85296 29.07269 5787 ft 257 kts 321°
2026-05-06 15:04 40.86663 29.05756 5591 ft 256 kts 317°
2026-05-06 15:04 40.87913 29.04079 5395 ft 256 kts 314°
2026-05-06 15:04 40.89131 29.02369 5192 ft 255 kts 313°
2026-05-06 15:04 40.90335 29.00650 4989 ft 255 kts 313°
2026-05-06 15:05 40.91530 28.98926 4791 ft 254 kts 313°
2026-05-06 15:05 40.92723 28.97195 4580 ft 254 kts 313°
2026-05-06 15:05 40.93913 28.95462 4370 ft 255 kts 313°
2026-05-06 15:05 40.95084 28.93751 4185 ft 246 kts 313°
2026-05-06 15:06 40.96207 28.92109 4024 ft 233 kts 313°
2026-05-06 15:06 40.97252 28.90578 4011 ft 216 kts 313°
2026-05-06 15:06 40.98230 28.89145 4015 ft 204 kts 313°
2026-05-06 15:06 40.99174 28.87763 4022 ft 202 kts 313°
2026-05-06 15:07 41.00109 28.86392 4014 ft 199 kts 312°
2026-05-06 15:07 41.01032 28.85038 4008 ft 198 kts 312°
2026-05-06 15:07 41.01952 28.83688 4002 ft 198 kts 313°
2026-05-06 15:07 41.02876 28.82332 4007 ft 198 kts 312°
2026-05-06 15:08 41.03801 28.80975 4000 ft 198 kts 312°
2026-05-06 15:08 41.04715 28.79634 4003 ft 199 kts 312°
2026-05-06 15:08 41.05690 28.78337 4003 ft 198 kts 319°
2026-05-06 15:08 41.06804 28.77269 4002 ft 198 kts 329°
2026-05-06 15:09 41.08049 28.76496 3953 ft 198 kts 339°
2026-05-06 15:09 41.09381 28.76045 3707 ft 197 kts 353°
2026-05-06 15:09 41.10744 28.75975 3410 ft 195 kts 359°
2026-05-06 15:09 41.12098 28.75947 3132 ft 192 kts 358°
2026-05-06 15:10 41.13411 28.75916 2858 ft 187 kts 359°
2026-05-06 15:10 41.14697 28.75891 2593 ft 181 kts 359°
2026-05-06 15:10 41.15922 28.75867 2361 ft 171 kts 359°
2026-05-06 15:10 41.17048 28.75845 2144 ft 156 kts 360°
2026-05-06 15:11 41.18093 28.75825 1942 ft 145 kts 360°
2026-05-06 15:11 41.19065 28.75807 1742 ft 135 kts 360°
2026-05-06 15:11 41.19977 28.75789 1568 ft 126 kts
2026-05-06 15:11 41.20848 28.75772 1412 ft 124 kts
2026-05-06 15:12 41.21711 28.75756 1237 ft 124 kts
2026-05-06 15:12 41.22575 28.75740 1074 ft 124 kts
2026-05-06 15:12 41.23432 28.75723 899 ft 123 kts
2026-05-06 15:12 41.24289 28.75690 681 ft 121 kts
2026-05-06 15:13 41.25124 28.75677 537 ft 120 kts
2026-05-06 15:13 41.25961 28.75662 403 ft 123 kts
2026-05-06 15:13 41.26795 28.75652 314 ft 114 kts
2026-05-06 15:13 41.27470 28.75649 301 ft 82 kts
2026-05-06 15:14 41.27893 28.75640 279 ft 36 kts 354°
2026-05-06 15:14 41.28059 28.75573 271 ft 20 kts 337°
2026-05-06 15:14 41.28172 28.75460 267 ft 15 kts 291°
2026-05-06 15:14 41.28142 28.75376 268 ft 11 kts 209°
2026-05-06 15:15 41.28060 28.75355 271 ft 13 kts 181°
2026-05-06 15:15 41.27968 28.75356 278 ft 14 kts 179°
2026-05-06 15:15 41.27871 28.75357 282 ft 14 kts 179°
2026-05-06 15:15 41.27770 28.75359 293 ft 15 kts 179°
2026-05-06 15:16 41.27666 28.75360 299 ft 15 kts 180°
2026-05-06 15:16 41.27558 28.75360 301 ft 16 kts 180°
2026-05-06 15:16 41.27436 28.75362 309 ft 19 kts 178°
2026-05-06 15:16 41.27297 28.75366 311 ft 21 kts 179°
2026-05-06 15:17 41.27138 28.75368 313 ft 24 kts 179°
2026-05-06 15:17 41.26982 28.75371 315 ft 12 kts 179°
2026-05-06 15:17 41.26902 28.75346 316 ft 12 kts 231°
2026-05-06 15:17 41.26891 28.75219 314 ft 16 kts 269°
2026-05-06 15:18 41.26889 28.75098 319 ft 11 kts 269°
2026-05-06 15:18 41.26888 28.75046 320 ft 1 kts 269°
2026-05-06 15:18 41.26887 28.74995 320 ft 10 kts 269°
2026-05-06 15:18 41.26886 28.74872 317 ft 16 kts 271°
2026-05-06 15:19 41.26886 28.74700 317 ft 21 kts 269°
2026-05-06 15:19 41.26847 28.74610 319 ft 12 kts 197°
2026-05-06 15:19 41.26758 28.74609 319 ft 8 kts 180°
2026-05-06 15:19 41.26713 28.74626 316 ft 5 kts 133°
2026-05-06 15:20 41.26711 28.74671 318 ft 7 kts 90°
2026-05-06 15:20 41.26711 28.74707 317 ft 6 kts 90°
2026-05-06 15:20 41.26711 28.74717 317 ft 0 kts 90°
2026-05-06 15:26 41.26711 28.74716 320 ft 0 kts 90°